OCN2B EDDF-LDDU

Flight info

Callsign OCN2B
Flight time 1h 34m
Altitude 37000
Route CINDY8S CINDY Z74 LAMPU DCT NOMBO Y161 RIDAR DCT KONIN DCT BERAS DCT LIKDA DCT BAKOR DCT MONFA DCT SPL DCT SIPAL
Aircraft A320/M-SDE3FGHIRWY/LB1

Departure

Time 2026-04-16 13:13
Airport Frankfurt Main Airport (EDDF)

Arrival

Time 2026-04-16 14:48
Airport Dubrovnik Ruđer Bošković Airport (LDDU)
Time Latitude Longitude Altitude Speed Heading
2026-04-16 12:40 50.04453 8.56431 356 ft 0 kts 154°
2026-04-16 13:00 50.04475 8.56415 360 ft 4 kts 155°
2026-04-16 13:00 50.04499 8.56399 358 ft 4 kts 170°
2026-04-16 13:00 50.04520 8.56401 356 ft 4 kts 240°
2026-04-16 13:01 50.04519 8.56393 362 ft 4 kts 250°
2026-04-16 13:01 50.04514 8.56374 358 ft 0 kts 250°
2026-04-16 13:03 50.04512 8.56366 360 ft 2 kts 250°
2026-04-16 13:03 50.04503 8.56327 358 ft 5 kts 248°
2026-04-16 13:03 50.04486 8.56259 357 ft 7 kts 249°
2026-04-16 13:03 50.04475 8.56213 359 ft 3 kts 249°
2026-04-16 13:04 50.04473 8.56204 358 ft 0 kts 249°
2026-04-16 13:05 50.04472 8.56201 357 ft 0 kts 249°
2026-04-16 13:05 50.04468 8.56183 362 ft 5 kts 249°
2026-04-16 13:05 50.04449 8.56104 363 ft 7 kts 249°
2026-04-16 13:06 50.04438 8.56060 361 ft 2 kts 249°
2026-04-16 13:06 50.04436 8.56053 360 ft 0 kts 249°
2026-04-16 13:06 50.04432 8.56039 360 ft 5 kts 249°
2026-04-16 13:06 50.04397 8.55945 358 ft 11 kts 210°
2026-04-16 13:07 50.04330 8.55937 356 ft 10 kts 161°
2026-04-16 13:07 50.04258 8.55959 354 ft 13 kts 205°
2026-04-16 13:07 50.04207 8.55806 354 ft 21 kts 249°
2026-04-16 13:07 50.04147 8.55552 355 ft 27 kts 250°
2026-04-16 13:08 50.04084 8.55293 354 ft 24 kts 249°
2026-04-16 13:08 50.04029 8.55058 356 ft 22 kts 249°
2026-04-16 13:08 50.03974 8.54832 356 ft 23 kts 249°
2026-04-16 13:08 50.03918 8.54596 351 ft 24 kts 250°
2026-04-16 13:09 50.03851 8.54352 354 ft 25 kts 234°
2026-04-16 13:09 50.03772 8.54107 351 ft 25 kts 249°
2026-04-16 13:09 50.03715 8.53867 351 ft 22 kts 250°
2026-04-16 13:09 50.03665 8.53656 346 ft 20 kts 248°
2026-04-16 13:10 50.03617 8.53470 338 ft 17 kts 249°
2026-04-16 13:10 50.03576 8.53302 335 ft 16 kts 250°
2026-04-16 13:10 50.03539 8.53145 337 ft 15 kts 250°
2026-04-16 13:10 50.03503 8.52994 336 ft 15 kts 249°
2026-04-16 13:11 50.03466 8.52845 335 ft 15 kts 247°
2026-04-16 13:11 50.03424 8.52691 333 ft 16 kts 247°
2026-04-16 13:11 50.03381 8.52593 333 ft 2 kts 179°
2026-04-16 13:12 50.03374 8.52593 334 ft 11 kts 179°
2026-04-16 13:12 50.03034 8.52597 330 ft 82 kts 180°
2026-04-16 13:12 50.02267 8.52603 333 ft 136 kts 180°
2026-04-16 13:13 50.01196 8.52614 550 ft 161 kts 181°
2026-04-16 13:13 50.00064 8.52615 1256 ft 164 kts 182°
2026-04-16 13:13 49.98904 8.52608 1913 ft 178 kts 183°
2026-04-16 13:13 49.97581 8.52771 2489 ft 202 kts 166°
2026-04-16 13:14 49.96315 8.53898 3017 ft 229 kts 138°
2026-04-16 13:14 49.95368 8.55997 3685 ft 241 kts 120°
2026-04-16 13:14 49.94565 8.58271 4573 ft 241 kts 120°
2026-04-16 13:14 49.93868 8.60654 5316 ft 249 kts 103°
2026-04-16 13:15 49.93782 8.63457 5658 ft 272 kts 89°
2026-04-16 13:15 49.93711 8.66439 6354 ft 280 kts 100°
2026-04-16 13:15 49.93074 8.69303 7116 ft 284 kts 121°
2026-04-16 13:15 49.91831 8.71669 7891 ft 285 kts 142°
2026-04-16 13:16 49.90226 8.73477 8704 ft 286 kts 147°
2026-04-16 13:16 49.88687 8.75478 9510 ft 292 kts 134°
2026-04-16 13:16 49.87496 8.78049 10280 ft 298 kts 120°
2026-04-16 13:16 49.86464 8.80934 10659 ft 317 kts 120°
2026-04-16 13:17 49.85351 8.84026 10854 ft 340 kts 120°
2026-04-16 13:17 49.84165 8.87297 11244 ft 355 kts 120°
2026-04-16 13:17 49.82937 8.90659 11880 ft 361 kts 122°
2026-04-16 13:17 49.81364 8.93701 12510 ft 365 kts 135°
2026-04-16 13:18 49.79578 8.96530 13178 ft 370 kts 136°
2026-04-16 13:18 49.77761 8.99380 13820 ft 374 kts 136°
2026-04-16 13:18 49.75914 9.02264 14410 ft 379 kts 136°
2026-04-16 13:18 49.74074 9.05130 14989 ft 383 kts 136°
2026-04-16 13:19 49.72187 9.08067 15603 ft 386 kts 136°
2026-04-16 13:19 49.70283 9.11033 16197 ft 390 kts 136°
2026-04-16 13:19 49.68367 9.14019 16761 ft 393 kts 136°
2026-04-16 13:19 49.66431 9.17031 17335 ft 397 kts 137°
2026-04-16 13:20 49.64473 9.20073 17893 ft 401 kts 137°
2026-04-16 13:20 49.62498 9.23140 18455 ft 405 kts 137°
2026-04-16 13:20 49.60507 9.26231 18930 ft 408 kts 137°
2026-04-16 13:20 49.58497 9.29346 19402 ft 411 kts 137°
2026-04-16 13:21 49.56470 9.32480 19869 ft 415 kts 137°
2026-04-16 13:21 49.54424 9.35642 20333 ft 418 kts 137°
2026-04-16 13:21 49.52364 9.38822 20787 ft 421 kts 137°
2026-04-16 13:21 49.50285 9.42023 21253 ft 424 kts 137°
2026-04-16 13:22 49.48187 9.45250 21698 ft 428 kts 137°
2026-04-16 13:22 49.46074 9.48494 22120 ft 432 kts 137°
2026-04-16 13:22 49.43942 9.51768 22553 ft 435 kts 137°
2026-04-16 13:22 49.41795 9.55064 22980 ft 438 kts 137°
2026-04-16 13:23 49.39632 9.58385 23400 ft 441 kts 137°
2026-04-16 13:23 49.37482 9.61680 23810 ft 444 kts 137°
2026-04-16 13:23 49.35286 9.65039 24160 ft 447 kts 137°
2026-04-16 13:23 49.33074 9.68414 24507 ft 450 kts 137°
2026-04-16 13:24 49.30851 9.71798 24860 ft 452 kts 137°
2026-04-16 13:24 49.28612 9.75202 25209 ft 454 kts 137°
2026-04-16 13:24 49.26363 9.78615 25550 ft 456 kts 137°
2026-04-16 13:24 49.24100 9.82034 25883 ft 459 kts 137°
2026-04-16 13:25 49.21820 9.85478 26206 ft 462 kts 137°
2026-04-16 13:25 49.19531 9.88946 26533 ft 464 kts 137°
2026-04-16 13:25 49.17237 9.92424 26852 ft 466 kts 137°
2026-04-16 13:25 49.14925 9.95921 27178 ft 469 kts 137°
2026-04-16 13:26 49.12604 9.99422 27494 ft 471 kts 137°
2026-04-16 13:26 49.10263 10.02944 27810 ft 473 kts 137°
2026-04-16 13:26 49.07911 10.06475 28104 ft 475 kts 137°
2026-04-16 13:26 49.05547 10.10009 28440 ft 477 kts 137°
2026-04-16 13:27 49.03146 10.13502 28756 ft 479 kts 139°
2026-04-16 13:27 49.00704 10.16963 29050 ft 481 kts 139°
2026-04-16 13:27 48.98228 10.20412 29289 ft 484 kts 139°
2026-04-16 13:27 48.95728 10.23876 29560 ft 486 kts 139°
2026-04-16 13:28 48.93227 10.27355 29861 ft 489 kts 139°
2026-04-16 13:28 48.90724 10.30864 30156 ft 491 kts 139°
2026-04-16 13:28 48.88215 10.34398 30399 ft 493 kts 139°
2026-04-16 13:28 48.85697 10.37954 30626 ft 494 kts 139°
2026-04-16 13:29 48.83181 10.41509 30936 ft 494 kts 138°
2026-04-16 13:29 48.80722 10.45125 31270 ft 493 kts 136°
2026-04-16 13:29 48.78332 10.48864 31588 ft 492 kts 134°
2026-04-16 13:29 48.76004 10.52659 31915 ft 491 kts 133°
2026-04-16 13:30 48.73703 10.56474 32290 ft 489 kts 133°
2026-04-16 13:30 48.71410 10.60267 32644 ft 488 kts 133°
2026-04-16 13:30 48.69107 10.64028 32989 ft 487 kts 134°
2026-04-16 13:30 48.66789 10.67751 33297 ft 486 kts 134°
2026-04-16 13:31 48.64462 10.71442 33609 ft 485 kts 134°
2026-04-16 13:31 48.62161 10.75067 33932 ft 484 kts 135°
2026-04-16 13:31 48.59740 10.78583 34250 ft 482 kts 142°
2026-04-16 13:31 48.57039 10.81556 34503 ft 479 kts 150°
2026-04-16 13:32 48.54125 10.83974 34769 ft 477 kts 155°
2026-04-16 13:32 48.51178 10.86270 35011 ft 477 kts 155°
2026-04-16 13:32 48.48227 10.88572 35223 ft 477 kts 154°
2026-04-16 13:33 48.42346 10.93162 35275 ft 475 kts 154°
2026-04-16 13:33 48.36482 10.97725 35275 ft 475 kts 155°
2026-04-16 13:34 48.30614 11.02280 35273 ft 475 kts 155°
2026-04-16 13:34 48.24747 11.06824 35249 ft 474 kts 155°
2026-04-16 13:35 48.18869 11.11357 35247 ft 474 kts 155°
2026-04-16 13:35 48.13001 11.15863 35253 ft 474 kts 155°
2026-04-16 13:36 48.07134 11.20357 35264 ft 473 kts 155°
2026-04-16 13:36 48.01285 11.24830 35272 ft 472 kts 154°
2026-04-16 13:37 47.95449 11.29295 35279 ft 471 kts 154°
2026-04-16 13:37 47.89658 11.33711 35274 ft 471 kts 155°
2026-04-16 13:38 47.83825 11.38153 35256 ft 470 kts 154°
2026-04-16 13:38 47.78079 11.42793 35243 ft 470 kts 152°
2026-04-16 13:39 47.72381 11.47533 35253 ft 469 kts 153°
2026-04-16 13:39 47.66686 11.52213 35252 ft 467 kts 153°
2026-04-16 13:40 47.60982 11.56828 35236 ft 466 kts 153°
2026-04-16 13:40 47.55288 11.61408 35236 ft 466 kts 153°
2026-04-16 13:41 47.49601 11.65989 35222 ft 465 kts 153°
2026-04-16 13:41 47.43919 11.70563 35218 ft 465 kts 153°
2026-04-16 13:42 47.38157 11.74814 35219 ft 460 kts 163°
2026-04-16 13:42 47.31977 11.76653 35223 ft 450 kts 181°
2026-04-16 13:43 47.25752 11.76381 35209 ft 447 kts 186°
2026-04-16 13:43 47.19540 11.76042 35189 ft 446 kts 185°
2026-04-16 13:44 47.13334 11.75721 35196 ft 446 kts 185°
2026-04-16 13:44 47.07132 11.75390 35184 ft 446 kts 185°
2026-04-16 13:45 47.00922 11.75053 35172 ft 446 kts 186°
2026-04-16 13:45 46.94763 11.74705 35162 ft 446 kts 185°
2026-04-16 13:46 46.88576 11.74365 35152 ft 445 kts 185°
2026-04-16 13:46 46.82376 11.74024 35138 ft 446 kts 185°
2026-04-16 13:47 46.76177 11.73683 35122 ft 446 kts 185°
2026-04-16 13:47 46.69982 11.73353 35128 ft 445 kts 185°
2026-04-16 13:48 46.63788 11.73887 35116 ft 451 kts 169°
2026-04-16 13:48 46.58015 11.77518 35110 ft 459 kts 148°
2026-04-16 13:48 46.55538 11.80467 35101 ft 462 kts 137°
2026-04-16 13:49 46.53248 11.83743 35104 ft 462 kts 137°
2026-04-16 13:49 46.48645 11.90264 35113 ft 463 kts 138°
2026-04-16 13:50 46.44025 11.96775 35103 ft 463 kts 138°
2026-04-16 13:50 46.39406 12.03273 35117 ft 464 kts 138°
2026-04-16 13:51 46.35561 12.08680 35118 ft 463 kts 138°
2026-04-16 13:51 46.30939 12.15171 35114 ft 463 kts 138°
2026-04-16 13:52 46.26315 12.21648 35135 ft 462 kts 138°
2026-04-16 13:52 46.21686 12.28104 35131 ft 462 kts 139°
2026-04-16 13:53 46.17064 12.34547 35135 ft 462 kts 138°
2026-04-16 13:53 46.12448 12.40968 35133 ft 461 kts 138°
2026-04-16 13:54 46.07848 12.47332 35135 ft 461 kts 139°
2026-04-16 13:54 46.03216 12.53731 35121 ft 461 kts 139°
2026-04-16 13:55 45.98581 12.60117 35121 ft 461 kts 139°
2026-04-16 13:55 45.93946 12.66495 35129 ft 461 kts 139°
2026-04-16 13:56 45.89308 12.72862 35122 ft 461 kts 139°
2026-04-16 13:56 45.84673 12.79210 35137 ft 461 kts 139°
2026-04-16 13:57 45.80033 12.85548 35145 ft 460 kts 139°
2026-04-16 13:57 45.75394 12.91870 35139 ft 460 kts 139°
2026-04-16 13:58 45.68427 13.01323 35109 ft 460 kts 139°
2026-04-16 13:58 45.63784 13.07619 35116 ft 460 kts 138°
2026-04-16 13:59 45.59135 13.13896 35107 ft 459 kts 138°
2026-04-16 13:59 45.54493 13.20146 35114 ft 459 kts 138°
2026-04-16 14:00 45.49845 13.26388 35113 ft 459 kts 138°
2026-04-16 14:00 45.45507 13.33062 35111 ft 459 kts 133°
2026-04-16 14:01 45.41271 13.39867 35114 ft 459 kts 133°
2026-04-16 14:01 45.37021 13.46647 35111 ft 459 kts 133°
2026-04-16 14:02 45.32772 13.53413 35116 ft 458 kts 133°
2026-04-16 14:02 45.28524 13.60157 35117 ft 458 kts 133°
2026-04-16 14:03 45.24274 13.66887 35121 ft 457 kts 132°
2026-04-16 14:03 45.20054 13.73566 35081 ft 459 kts 132°
2026-04-16 14:04 45.15768 13.80332 35083 ft 463 kts 132°
2026-04-16 14:04 45.11450 13.87119 35091 ft 465 kts 132°
2026-04-16 14:05 45.07113 13.93924 35109 ft 466 kts 132°
2026-04-16 14:05 45.02767 14.00738 35109 ft 467 kts 132°
2026-04-16 14:06 44.98409 14.07541 35100 ft 467 kts 132°
2026-04-16 14:06 44.94036 14.14345 35101 ft 468 kts 132°
2026-04-16 14:07 44.89666 14.21135 35102 ft 468 kts 132°
2026-04-16 14:07 44.85289 14.27916 35108 ft 467 kts 131°
2026-04-16 14:08 44.80915 14.34687 35117 ft 467 kts 131°
2026-04-16 14:08 44.76546 14.41438 35111 ft 466 kts 131°
2026-04-16 14:09 44.72173 14.48169 35106 ft 466 kts 131°
2026-04-16 14:09 44.67826 14.54839 35111 ft 466 kts 131°
2026-04-16 14:10 44.63455 14.61545 35112 ft 465 kts 131°
2026-04-16 14:10 44.59085 14.68236 35111 ft 464 kts 131°
2026-04-16 14:11 44.54717 14.74902 35106 ft 464 kts 131°
2026-04-16 14:11 44.50343 14.81544 35104 ft 464 kts 131°
2026-04-16 14:12 44.45968 14.88176 35097 ft 463 kts 131°
2026-04-16 14:12 44.41590 14.94801 35095 ft 463 kts 131°
2026-04-16 14:13 44.37210 15.01408 35093 ft 463 kts 131°
2026-04-16 14:13 44.32833 15.08006 35093 ft 463 kts 131°
2026-04-16 14:14 44.28487 15.14550 35098 ft 462 kts 131°
2026-04-16 14:14 44.24114 15.21109 35096 ft 461 kts 131°
2026-04-16 14:15 44.19739 15.27649 35096 ft 461 kts 131°
2026-04-16 14:15 44.15359 15.34173 35093 ft 461 kts 131°
2026-04-16 14:16 44.10984 15.40685 35108 ft 460 kts 130°
2026-04-16 14:16 44.06620 15.47181 35102 ft 459 kts 130°
2026-04-16 14:17 44.02257 15.53656 35089 ft 458 kts 130°
2026-04-16 14:17 43.97894 15.60100 35081 ft 458 kts 130°
2026-04-16 14:18 43.93520 15.66540 35079 ft 458 kts 130°
2026-04-16 14:18 43.89160 15.72971 35081 ft 458 kts 130°
2026-04-16 14:19 43.84796 15.79391 35071 ft 457 kts 131°
2026-04-16 14:19 43.80456 15.85751 35066 ft 457 kts 131°
2026-04-16 14:20 43.76194 15.92275 35061 ft 456 kts 128°
2026-04-16 14:20 43.72141 15.99024 35053 ft 456 kts 127°
2026-04-16 14:21 43.68112 16.05799 35052 ft 456 kts 128°
2026-04-16 14:21 43.64031 16.12524 35047 ft 457 kts 128°
2026-04-16 14:22 43.59911 16.19212 35048 ft 457 kts 128°
2026-04-16 14:22 43.55786 16.25881 35023 ft 457 kts 128°
2026-04-16 14:23 43.51671 16.32558 35022 ft 457 kts 128°
2026-04-16 14:23 43.47556 16.39234 35029 ft 457 kts 129°
2026-04-16 14:24 43.43430 16.45902 35005 ft 457 kts 129°
2026-04-16 14:24 43.41375 16.49215 34605 ft 452 kts 129°
2026-04-16 14:24 43.39338 16.52489 34032 ft 450 kts 130°
2026-04-16 14:25 43.37304 16.55759 33207 ft 451 kts 130°
2026-04-16 14:25 43.35262 16.59048 32344 ft 454 kts 130°
2026-04-16 14:25 43.33216 16.62344 31664 ft 452 kts 131°
2026-04-16 14:25 43.31183 16.65608 31092 ft 447 kts 131°
2026-04-16 14:26 43.29165 16.68840 30558 ft 443 kts 131°
2026-04-16 14:26 43.27173 16.72030 29963 ft 439 kts 131°
2026-04-16 14:26 43.25217 16.75162 29354 ft 436 kts 131°
2026-04-16 14:26 43.23252 16.78301 28755 ft 432 kts 132°
2026-04-16 14:27 43.21304 16.81408 28167 ft 428 kts 132°
2026-04-16 14:27 43.19374 16.84485 27584 ft 424 kts 131°
2026-04-16 14:27 43.17460 16.87536 27031 ft 420 kts 131°
2026-04-16 14:27 43.15542 16.90585 26475 ft 416 kts 131°
2026-04-16 14:28 43.13664 16.93563 25996 ft 410 kts 131°
2026-04-16 14:28 43.11810 16.96502 25512 ft 405 kts 130°
2026-04-16 14:28 43.09997 16.99372 25009 ft 401 kts 130°
2026-04-16 14:28 43.08181 17.02245 24498 ft 398 kts 130°
2026-04-16 14:29 43.06378 17.05096 23968 ft 395 kts 130°
2026-04-16 14:29 43.04589 17.07924 23444 ft 392 kts 130°
2026-04-16 14:29 43.02807 17.10733 22877 ft 389 kts 130°
2026-04-16 14:29 43.01042 17.13513 22320 ft 386 kts 130°
2026-04-16 14:30 42.99290 17.16271 21811 ft 383 kts 130°
2026-04-16 14:30 42.97553 17.19009 21287 ft 380 kts 130°
2026-04-16 14:30 42.95829 17.21728 20782 ft 378 kts 130°
2026-04-16 14:30 42.94109 17.24434 20270 ft 376 kts 130°
2026-04-16 14:31 42.92397 17.27116 19795 ft 374 kts 131°
2026-04-16 14:31 42.90515 17.29533 19336 ft 372 kts 141°
2026-04-16 14:31 42.88412 17.31577 18914 ft 369 kts 144°
2026-04-16 14:31 42.86312 17.33571 18505 ft 366 kts 143°
2026-04-16 14:32 42.84233 17.35551 18050 ft 363 kts 144°
2026-04-16 14:32 42.82170 17.37515 17550 ft 361 kts 143°
2026-04-16 14:32 42.80123 17.39464 17095 ft 358 kts 143°
2026-04-16 14:32 42.78114 17.41381 16668 ft 355 kts 143°
2026-04-16 14:33 42.76259 17.43579 16214 ft 352 kts 131°
2026-04-16 14:33 42.74758 17.46176 15786 ft 348 kts 122°
2026-04-16 14:33 42.73594 17.49038 15320 ft 346 kts 117°
2026-04-16 14:33 42.72478 17.51926 14904 ft 343 kts 117°
2026-04-16 14:34 42.71367 17.54795 14491 ft 341 kts 116°
2026-04-16 14:34 42.70264 17.57637 14076 ft 339 kts 117°
2026-04-16 14:34 42.69166 17.60460 13639 ft 337 kts 117°
2026-04-16 14:34 42.68072 17.63269 13181 ft 335 kts 116°
2026-04-16 14:35 42.66983 17.66060 12731 ft 333 kts 116°
2026-04-16 14:35 42.65887 17.68863 12288 ft 330 kts 116°
2026-04-16 14:35 42.64813 17.71610 11850 ft 328 kts 116°
2026-04-16 14:35 42.63748 17.74336 11426 ft 326 kts 116°
2026-04-16 14:36 42.62689 17.77047 11006 ft 324 kts 116°
2026-04-16 14:36 42.61652 17.79706 10577 ft 322 kts 116°
2026-04-16 14:36 42.60607 17.82383 10166 ft 320 kts 116°
2026-04-16 14:36 42.59571 17.85028 9912 ft 312 kts 116°
2026-04-16 14:37 42.58570 17.87576 9786 ft 301 kts 116°
2026-04-16 14:37 42.57607 17.90028 9651 ft 290 kts 116°
2026-04-16 14:37 42.56671 17.92404 9422 ft 283 kts 116°
2026-04-16 14:37 42.55751 17.94742 9082 ft 280 kts 116°
2026-04-16 14:38 42.54839 17.97065 8721 ft 278 kts 116°
2026-04-16 14:38 42.53933 17.99378 8350 ft 276 kts 116°
2026-04-16 14:38 42.53033 18.01672 7970 ft 275 kts 116°
2026-04-16 14:38 42.52137 18.03955 7607 ft 273 kts 116°
2026-04-16 14:39 42.51243 18.06220 7228 ft 272 kts 116°
2026-04-16 14:39 42.50351 18.08478 6898 ft 271 kts 116°
2026-04-16 14:39 42.49464 18.10718 6589 ft 270 kts 116°
2026-04-16 14:39 42.48580 18.12949 6261 ft 268 kts 117°
2026-04-16 14:40 42.47702 18.15170 5889 ft 267 kts 117°
2026-04-16 14:40 42.46830 18.17381 5498 ft 265 kts 117°
2026-04-16 14:40 42.45963 18.19584 5112 ft 264 kts 117°
2026-04-16 14:40 42.45109 18.21750 4893 ft 253 kts 117°
2026-04-16 14:41 42.44320 18.23747 4764 ft 230 kts 117°
2026-04-16 14:41 42.43604 18.25551 4610 ft 211 kts 117°
2026-04-16 14:41 42.42922 18.27272 4321 ft 204 kts 117°
2026-04-16 14:41 42.42259 18.28945 3948 ft 201 kts 117°
2026-04-16 14:42 42.41688 18.30670 3540 ft 201 kts 107°
2026-04-16 14:42 42.41428 18.32530 3125 ft 202 kts 93°
2026-04-16 14:42 42.41488 18.34433 2708 ft 203 kts 80°
2026-04-16 14:42 42.41864 18.36260 2530 ft 200 kts 65°
2026-04-16 14:43 42.42521 18.37917 2523 ft 199 kts 52°
2026-04-16 14:43 42.43112 18.38901 2513 ft 199 kts 44°
2026-04-16 14:43 42.44541 18.40414 2509 ft 197 kts 28°
2026-04-16 14:43 42.45372 18.40945 2505 ft 196 kts 18°
2026-04-16 14:44 42.46685 18.41399 2508 ft 194 kts
2026-04-16 14:44 42.48024 18.41438 2510 ft 192 kts 351°
2026-04-16 14:44 42.49275 18.41015 2494 ft 176 kts 336°
2026-04-16 14:44 42.50289 18.40234 2504 ft 158 kts 320°
2026-04-16 14:45 42.51031 18.39306 2456 ft 137 kts 312°
2026-04-16 14:45 42.51599 18.38289 2285 ft 136 kts 301°
2026-04-16 14:45 42.52063 18.37162 2120 ft 142 kts 297°
2026-04-16 14:45 42.52514 18.35944 1900 ft 143 kts 297°
2026-04-16 14:46 42.52979 18.34754 1726 ft 142 kts 297°
2026-04-16 14:46 42.53468 18.33616 1545 ft 141 kts 301°
2026-04-16 14:46 42.53910 18.32442 1379 ft 139 kts 295°
2026-04-16 14:46 42.54335 18.31303 1160 ft 134 kts 300°
2026-04-16 14:47 42.54798 18.30198 927 ft 134 kts 297°
2026-04-16 14:47 42.55232 18.29087 698 ft 135 kts 297°
2026-04-16 14:47 42.55678 18.27977 565 ft 133 kts 298°
2026-04-16 14:47 42.56071 18.26990 534 ft 99 kts 298°
2026-04-16 14:48 42.56310 18.26389 532 ft 40 kts 298°
2026-04-16 14:48 42.56317 18.26201 534 ft 16 kts 184°
2026-04-16 14:48 42.56250 18.26236 534 ft 5 kts 160°
2026-04-16 14:48 42.56215 18.26257 534 ft 8 kts 152°
2026-04-16 14:49 42.56173 18.26288 534 ft 6 kts 150°
2026-04-16 14:49 42.56137 18.26352 534 ft 12 kts 119°
2026-04-16 14:49 42.56089 18.26368 534 ft 6 kts 208°
2026-04-16 14:49 42.56072 18.26354 534 ft 2 kts 208°
2026-04-16 14:50 42.56070 18.26352 534 ft 0 kts 208°